GFSWCAN_850_dewp_132.txt.gz
Dewpoint
-4 -3 -3 -5 -10 -11 -9 -7 -5 -5 -8 -7 -5 -5 -3 -3 -5 -2 -2 -3 -2 0 -1 -1 -1 0 -0 -0 2 -0 1 -0 2 1 -0 1 -0 -3 -2 0 -3 2 3 1 0 1 2 -4 -4 -2 1 -2 -2 -1
-4 -4 -10 -13 -9 -8 -5 -5 -6 -10 -10 -5 -3 -5 -4 -2 -2 -3 -1 -1 -0 1 -0 -1 -1 -1 -1 -2 -3 -3 -4 -3 -2 -2 -3 -3 -1 -2 -4 -0 -6 -1 -1 1 2 1 1 -3 -3 -7 -3 -2 -1 -1
-6 -10 -9 -7 -7 -6 -6 -8 -11 -12 -8 -4 -2 -4 -5 -3 -2 -2 -1 -0 -0 0 -1 -1 -1 -0 -1 -1 -0 -1 -2 -3 -2 -2 -0 -0 -0 -4 -1 -1 -2 -4 -6 -2 -1 -3 -5 -6 -4 -3 -1 -1 -1 -0
-12 -12 -8 -7 -7 -6 -9 -11 -14 -14 -5 -4 -2 -2 -2 -2 -2 -2 -2 -2 -4 -4 -2 -5 -5 -4 -3 -2 -1 -1 -1 -2 -1 -0 -1 0 -0 -3 -1 1 -0 1 -1 -1 0 -0 -1 -5 -3 -3 -2 -2 -1 -1
-12 -10 -9 -8 -8 -9 -11 -13 -17 -12 -3 -3 -3 -2 -2 -2 -2 -2 -2 -4 -5 -5 -4 -5 -6 -6 -5 -4 -3 -2 -2 -2 -3 -2 -1 -1 -5 -2 -1 -0 -0 -4 -0 0 1 -3 -0 1 0 1 -1 -2 -1 -1
-13 -12 -11 -12 -12 -12 -12 -15 -13 -6 -3 -5 -3 -3 -4 -3 -4 -3 -5 -3 -4 -4 -5 -5 -4 -6 -5 -5 -4 -3 -3 -4 -4 -2 -3 -5 -5 -2 -1 -1 -5 -4 -2 0 1 1 1 0 -1 -1 -1 -1 -1 -1
-14 -13 -15 -16 -17 -16 -15 -15 -8 -6 -4 -5 -4 -4 -5 -4 -2 -2 -1 -2 -4 -3 -2 -5 -6 -4 -4 -6 -6 -5 -4 -3 -1 -1 -2 -3 -2 -1 0 -0 -5 -6 -3 -3 -2 -1 -2 -2 -2 -2 -2 -2 -2 -2
-8 -8 -11 -15 -17 -18 -16 -13 -6 -6 -4 -4 -7 -5 -5 -3 -5 -2 -6 -6 -3 -2 -4 -4 -2 -1 -3 -2 -3 -3 -1 -0 -1 -1 -2 -2 -3 -1 0 -4 -3 -2 -2 -1 -2 -2 -2 -2 -3 -3 -3 -2 -3 -3
-9 -9 -9 -15 -12 -12 -16 -9 -5 -5 -4 -4 -6 -5 -5 -4 -4 -2 -5 -5 -5 -2 -5 -7 -4 -1 -1 -1 -1 -1 -1 0 -1 -2 -3 -3 -2 -0 -2 -5 -1 0 -1 -1 -2 -3 -3 -3 -4 -4 -4 -3 -4 -4
-5 -7 -8 -8 -8 -13 -15 -7 -5 -4 -5 -4 -6 -5 -3 -4 -5 -4 -3 -2 -3 -2 -2 -2 -4 -0 -1 -1 -1 -0 -2 -2 -1 -2 -4 -2 -1 -5 -6 -3 -0 -2 -2 -2 -2 -3 -4 -4 -5 -5 -5 -4 -4 -4
-4 -3 -5 -8 -9 -7 -6 -6 -4 -4 -4 -3 -3 -3 -2 -5 -3 -3 -3 -4 -4 -2 -3 -4 -5 -1 -2 1 -1 -2 -1 -2 -2 -1 -1 -1 -2 -1 -1 -2 -2 -2 -3 -3 -3 -3 -4 -4 -5 -5 -5 -5 -5 -5
-3 -3 -6 -6 -6 -6 -9 -6 -5 -3 -3 -3 -3 -3 -3 -4 -2 -3 -3 -4 -4 -4 -2 -3 -3 -3 -0 -1 1 -2 1 -1 -0 -0 0 1 2 -1 -2 -2 -2 -3 -3 -4 -4 -4 -4 -4 -4 -5 -5 -5 -6 -6
-5 -7 -8 -9 -10 -12 -9 -3 -5 -3 -4 -4 -3 -2 -2 -3 -1 -2 -2 -3 -0 1 -1 -1 1 -1 -1 -0 -1 0 -0 0 -2 1 -2 1 -2 -2 -3 -3 -3 -3 -3 -4 -3 -4 -4 -5 -5 -5 -6 -6 -6 -6
-6 -7 -8 -9 -6 -4 -5 -5 -2 -3 -3 -3 -2 -0 -1 -1 -2 -2 0 1 -0 -0 -2 -1 1 1 -2 -0 0 0 -0 -2 -2 -3 -3 -0 -3 -3 -3 -3 -3 -3 -4 -4 -4 -4 -5 -5 -5 -6 -6 -6 -6 -6
-8 -9 -8 -7 -5 -3 -3 -3 -2 -2 -2 -1 -2 -1 -3 -3 -2 -2 -1 -1 -1 0 -1 -1 -3 -4 -2 1 -1 -2 -1 -2 -4 -2 1 -2 -2 -3 -3 -3 -4 -5 -5 -4 -4 -5 -5 -5 -5 -6 -6 -6 -7 -7
-2 -2 -2 -3 -2 -2 -2 -2 -2 -2 -1 -2 -3 -2 -3 -1 -1 -2 -2 -1 -1 -1 -1 -4 -4 -1 -2 -3 -4 -3 -6 -5 1 -0 -1 -1 -2 -2 -3 -5 -5 -6 -6 -5 -5 -5 -6 -6 -6 -7 -7 -8 -7 -8
-3 -3 -3 -3 -3 -2 -2 -2 -1 -1 -3 -4 -1 -3 -2 -1 -1 -2 -2 -1 -2 -1 1 -6 -4 -4 -4 -5 -6 -6 -1 -0 -1 -1 -2 -2 -3 -2 -4 -5 -5 -5 -5 -6 -5 -5 -6 -6 -7 -7 -8 -8 -8 -8
-2 -6 -9 -8 -5 -4 -2 -2 -2 -4 -5 -3 -1 -2 -2 -2 -1 -2 -2 -1 -1 -2 -5 -4 -5 -4 -2 -5 -4 -1 -2 -2 -2 -4 -3 -2 -3 -3 -5 -5 -5 -5 -5 -6 -6 -6 -6 -6 -7 -7 -8 -8 -9 -9
-9 -10 -11 -9 -4 -3 -4 -4 -4 -4 -4 -3 -3 -3 -3 -2 -2 -2 -2 -1 -3 -4 -4 -5 -3 -5 -2 -2 -0 -1 -3 -4 -3 -3 -3 -2 -3 -4 -5 -5 -5 -5 -5 -5 -5 -6 -6 -6 -6 -7 -8 -8 -9 -9
-10 -11 -11 -11 -6 -5 -6 -4 -4 -5 -4 -2 -3 -2 -2 -3 -2 -1 -1 -2 -3 -4 -4 -4 -1 -1 -1 -2 -3 -2 -3 -2 -3 -3 -4 -4 -3 -3 -3 -4 -4 -4 -5 -5 -5 -5 -6 -6 -6 -7 -7 -8 -8 -9
-7 -6 -12 -7 -5 -6 -5 -5 -5 -5 -5 -3 -3 -3 -2 -3 -1 -1 -1 -3 -3 -4 -3 -2 -2 -3 -3 -3 -3 -3 -4 -4 -4 -4 -3 -4 -4 -4 -4 -4 -4 -5 -5 -5 -6 -6 -6 -6 -6 -7 -7 -7 -8 -8
-9 -16 -7 -7 -6 -5 -5 -5 -5 -5 -5 -4 -4 -4 -3 -2 -2 -2 -3 -3 -4 -2 -3 -3 -3 -3 -4 -4 -4 -3 -5 -5 -5 -5 -3 -4 -4 -5 -5 -5 -5 -5 -5 -6 -6 -6 -6 -6 -6 -7 -7 -7 -7 -8
-15 -11 -6 -6 -6 -5 -5 -5 -5 -6 -5 -5 -5 -5 -4 -4 -4 -4 -5 -4 -2 -3 -3 -3 -4 -5 -5 -4 -5 -5 -5 -5 -6 -5 -5 -4 -4 -4 -5 -5 -5 -5 -6 -6 -6 -6 -6 -6 -7 -7 -7 -8 -8 -8
-10 -9 -10 -6 -5 -4 -5 -4 -7 -7 -6 -6 -6 -5 -6 -5 -5 -6 -5 -6 -3 -4 -4 -4 -4 -5 -5 -5 -5 -5 -6 -6 -6 -6 -6 -6 -6 -6 -6 -6 -5 -6 -6 -6 -6 -6 -7 -7 -7 -8 -8 -8 -8 -9
-9 -7 -5 -5 -5 -4 -4 -5 -5 -7 -5 -6 -6 -5 -5 -7 -4 -5 -6 -3 -2 -3 -4 -4 -4 -5 -5 -5 -5 -5 -5 -5 -5 -5 -6 -6 -6 -6 -6 -6 -6 -7 -6 -6 -7 -7 -8 -8 -8 -8 -8 -9 -9 -9
-8 -5 -5 -6 -6 -6 -6 -6 -6 -6 -6 -5 -5 -6 -6 -5 -5 -5 -7 -2 -3 -4 -4 -5 -5 -5 -4 -4 -4 -5 -5 -5 -5 -5 -6 -5 -6 -6 -6 -6 -7 -7 -7 -7 -7 -8 -8 -8 -9 -9 -9 -9 -9 -10
-9 -6 -7 -6 -6 -8 -6 -6 -7 -6 -5 -5 -5 -4 -4 -5 -5 -5 -4 -3 -3 -3 -4 -5 -4 -3 -4 -4 -4 -4 -4 -5 -5 -5 -5 -6 -6 -6 -7 -7 -7 -7 -7 -8 -8 -8 -8 -9 -9 -9 -9 -10 -10 -10
-8 -8 -6 -6 -7 -7 -6 -6 -6 -6 -7 -6 -7 -5 -6 -6 -4 -4 -5 -5 -5 -5 -4 -4 -6 -6 -5 -4 -4 -5 -5 -5 -6 -5 -5 -6 -6 -6 -6 -7 -7 -7 -7 -8 -8 -8 -9 -9 -9 -10 -10 -10 -10 -10
-7 -6 -7 -5 -6 -7 -6 -7 -7 -8 -7 -7 -5 -6 -6 -6 -4 -4 -5 -5 -4 -5 -5 -5 -5 -7 -6 -6 -5 -5 -6 -7 -6 -6 -6 -6 -7 -6 -7 -7 -7 -7 -7 -8 -8 -8 -9 -10 -10 -10 -10 -10 -10 -11
-6 -6 -7 -6 -6 -8 -6 -6 -5 -5 -6 -6 -6 -7 -7 -7 -6 -5 -5 -5 -5 -5 -5 -6 -6 -6 -6 -6 -6 -6 -6 -6 -6 -6 -6 -6 -6 -7 -6 -7 -7 -7 -8 -8 -9 -9 -10 -10 -10 -10 -10 -11 -11 -11
-7 -6 -6 -7 -7 -6 -6 -6 -6 -6 -6 -6 -6 -6 -6 -6 -6 -6 -7 -6 -6 -6 -5 -6 -6 -7 -6 -6 -6 -7 -6 -7 -6 -6 -6 -6 -7 -7 -7 -7 -7 -8 -8 -8 -9 -9 -10 -10 -10 -10 -11 -11 -11 -11
-6 -7 -7 -8 -8 -5 -6 -6 -6 -7 -7 -7 -6 -5 -6 -5 -6 -7 -7 -7 -5 -5 -5 -6 -6 -6 -7 -7 -7 -7 -6 -6 -7 -7 -8 -8 -8 -7 -7 -8 -8 -8 -8 -9 -9 -9 -10 -10 -10 -11 -11 -11 -11 -11
-7 -6 -7 -7 -7 -7 -6 -6 -8 -8 -8 -8 -8 -8 -7 -6 -6 -7 -6 -7 -7 -5 -6 -5 -6 -6 -6 -7 -7 -7 -7 -7 -8 -9 -9 -9 -9 -9 -9 -9 -8 -8 -9 -9 -9 -10 -10 -10 -10 -11 -11 -11 -11 -11

GFSWCAN_850_dewp_135.txt.gz
Dewpoint
-5 -5 -4 -4 -3 -3 -4 -9 -13 -9 -8 -6 -6 -9 -9 -7 -6 -5 -4 -3 -3 -3 -4 -4 -2 -1 1 2 1 2 2 1 1 0 1 0 1 -1 -0 -1 -1 2 3 3 2 3 3 -2 -3 -1 -0 -1 -1 -1
-4 -4 -4 -4 -3 -6 -13 -12 -9 -7 -7 -9 -11 -8 -6 -4 -4 -3 -3 -2 -4 -2 -4 -2 -2 -3 1 0 1 2 0 0 0 0 -1 -1 -0 -1 -2 -0 -3 -2 -0 1 2 1 -1 -3 -3 -5 -5 -2 -1 -0
-5 -5 -4 -6 -11 -10 -7 -6 -7 -9 -13 -13 -9 -3 -4 -3 -4 -3 -2 -3 -3 -2 -2 -3 0 -0 0 0 -0 1 -0 -2 -2 -3 -1 -1 -1 -2 -1 -1 -2 -2 0 -1 -2 -2 -2 -4 -3 -3 -2 -1 -1 -0
-5 -6 -9 -7 -7 -6 -6 -8 -11 -15 -15 -11 -3 -3 -3 -4 -3 -3 -3 -3 -3 -1 -1 -0 -0 -1 -0 1 1 -1 -1 -2 -2 -2 -1 -2 -1 -2 -1 -1 -1 -1 -0 1 2 0 -1 -3 -2 0 -1 -2 -1 1
-5 -14 -12 -8 -7 -7 -8 -11 -14 -15 -8 -3 -3 -3 -2 -3 -3 -3 -4 -2 -1 -1 -0 -4 -5 -4 -4 -2 -1 -2 -2 -1 -1 -1 -2 -2 -2 -2 -2 -2 -0 -2 -2 0 1 0 0 -1 -0 -1 -0 -1 -1 -0
-6 -14 -13 -10 -9 -9 -11 -13 -15 -9 -4 -3 -3 -3 -2 -2 -2 -2 -2 -1 -2 -2 -4 -1 -5 -6 -5 -4 -3 -2 -2 -3 -3 -2 -3 -4 -4 -2 -2 -1 -2 -5 -4 -1 1 -2 -3 -0 -1 -1 -1 -0 0 -1
-8 -16 -16 -12 -11 -13 -13 -14 -12 -5 -4 -3 -3 -3 -2 -4 -3 -2 -2 -3 -6 -7 -4 -2 -2 -3 -4 -5 -5 -4 -4 -3 -2 -2 -3 -3 -2 -2 -2 -1 -4 -5 -5 -3 -2 -1 -1 -2 -2 -2 -1 -2 -1 -1
-9 -16 -16 -14 -15 -17 -16 -16 -11 -5 -4 -7 -5 -5 -3 -5 -4 -7 -4 -4 -5 -6 -4 -3 -2 -2 -3 -3 -3 -3 -2 -2 -2 -2 -2 -2 -3 -2 -2 -2 -4 -5 -4 -2 -2 -1 -2 -2 -3 -3 -3 -2 -2 -2
-6 -11 -9 -9 -14 -17 -15 -15 -7 -5 -4 -7 -6 -5 -5 -5 -4 -6 -8 -6 -6 -6 -3 -4 -3 -5 -1 -1 -1 -1 -2 -1 -2 -2 -2 -2 -3 -2 -2 -2 -3 -2 -2 -1 -1 -2 -3 -3 -4 -4 -3 -2 -3 -3
-7 -9 -10 -11 -14 -11 -10 -13 -6 -4 -5 -7 -7 -4 -5 -5 -6 -7 -9 -8 -9 -5 -3 -3 -4 -3 -2 -2 -1 -2 -1 -3 -1 -2 -3 -3 -2 -5 -4 -4 -3 -1 -1 -2 -2 -3 -3 -4 -4 -5 -4 -3 -3 -4
-5 -9 -11 -15 -15 -8 -14 -7 -4 -5 -4 -6 -4 -3 -3 -6 -4 -3 -3 -3 -3 -3 -3 -3 -5 -2 -1 -3 -1 -2 -2 -3 -1 -2 -2 -1 -0 -3 -6 -5 -1 -1 -2 -2 -2 -3 -3 -4 -5 -5 -5 -4 -4 -4
-6 -6 -8 -13 -10 -11 -10 -5 -4 -4 -5 -3 -4 -4 -5 -3 -3 -3 -4 -3 -3 -2 -3 -2 -4 -3 -2 -1 -1 -2 -1 -1 -0 -2 -1 -1 0 -1 -2 -1 -2 -2 -3 -3 -4 -3 -4 -4 -5 -5 -5 -5 -4 -4
-6 -7 -9 -14 -14 -9 -12 -5 -4 -4 -4 -4 -5 -3 -3 -4 -2 -2 -3 -2 -2 -1 -0 0 -1 -1 -1 -1 -1 -0 -2 0 0 1 1 1 -1 -2 -2 -3 -3 -3 -4 -4 -4 -4 -4 -4 -5 -5 -5 -5 -6 -6
-6 -7 -10 -15 -14 -14 -5 -5 -4 -3 -2 -4 -2 -2 -3 -1 -2 -1 -0 -0 -0 -0 0 -0 -0 0 -0 -1 -0 -1 -2 -2 -3 -3 -1 -1 -2 -3 -3 -3 -3 -3 -4 -4 -4 -4 -4 -5 -5 -6 -6 -6 -6 -6
-8 -7 -7 -7 -5 -5 -5 -4 -4 -3 -2 -3 -1 -1 -2 -2 -2 -2 -3 -2 -2 -0 0 0 -0 -1 -1 -2 -3 -3 -3 -3 -3 -4 0 -2 -3 -4 -3 -3 -3 -4 -4 -5 -4 -5 -5 -5 -5 -6 -6 -6 -6 -6
-3 -3 -3 -4 -4 -4 -5 -4 -3 -2 -2 -1 -3 -3 -2 -3 -1 -2 -2 -2 -2 -0 -1 -2 -3 -3 -3 -2 -3 -3 -2 -3 0 -1 -1 -2 -4 -4 -4 -3 -4 -5 -5 -5 -5 -5 -5 -6 -6 -6 -7 -6 -7 -7
-3 -3 -3 -3 -3 -3 -2 -2 -2 -2 -2 -4 -1 -3 -3 -2 -1 -2 -2 -2 -2 -1 -1 -2 -4 -2 -3 -3 -4 -2 -2 -1 -1 -2 -1 -4 -3 -3 -3 -5 -5 -4 -4 -5 -5 -6 -6 -6 -7 -7 -8 -8 -7 -8
-4 -5 -7 -6 -3 -2 -2 -2 -1 -3 -4 -5 -2 -2 -4 -2 -2 -2 -2 -2 -1 -2 -3 -2 -5 -4 -4 -3 -2 -3 -3 -2 -2 -3 -2 -2 -2 -3 -4 -5 -4 -4 -4 -5 -6 -6 -6 -7 -7 -7 -8 -9 -9 -8
-4 -7 -10 -8 -5 -2 -1 -3 -3 -3 -4 -5 -4 -4 -3 -3 -3 -2 -3 -2 -1 -2 -3 -3 -3 -2 -2 -2 -2 -2 -2 -3 -4 -3 -3 -3 -3 -3 -4 -4 -4 -4 -5 -5 -5 -6 -6 -7 -7 -7 -8 -9 -9 -9
-10 -10 -9 -10 -5 -4 -4 -5 -4 -3 -3 -2 -5 -4 -4 -4 -4 -3 -2 -1 -2 -3 -3 -3 -2 -1 -1 -2 -2 -3 -4 -4 -4 -4 -4 -3 -3 -4 -4 -4 -4 -5 -5 -5 -5 -6 -6 -6 -6 -7 -7 -8 -8 -9
-7 -6 -10 -6 -4 -5 -5 -5 -5 -5 -6 -5 -5 -4 -2 -3 -3 -2 -2 -2 -3 -3 -3 -1 -2 -3 -3 -4 -4 -4 -4 -4 -4 -5 -4 -4 -4 -4 -4 -4 -4 -5 -5 -5 -6 -6 -6 -6 -6 -7 -7 -8 -8 -8
-10 -16 -9 -6 -6 -5 -5 -5 -4 -4 -4 -4 -4 -4 -3 -2 -3 -4 -2 -3 -3 -2 -2 -3 -3 -4 -4 -4 -4 -3 -5 -5 -5 -5 -4 -4 -4 -4 -4 -4 -5 -5 -5 -6 -6 -6 -6 -6 -6 -7 -7 -7 -8 -8
-13 -12 -6 -6 -6 -6 -6 -5 -4 -5 -4 -4 -6 -4 -3 -4 -5 -5 -4 -4 -2 -3 -3 -3 -4 -4 -4 -5 -5 -5 -5 -5 -5 -5 -5 -5 -5 -5 -5 -5 -5 -5 -5 -6 -6 -6 -6 -6 -6 -7 -7 -7 -8 -8
-9 -9 -8 -7 -5 -5 -5 -4 -5 -6 -6 -5 -4 -5 -5 -4 -5 -5 -5 -5 -3 -4 -4 -4 -4 -5 -5 -5 -6 -5 -6 -6 -6 -6 -5 -6 -5 -5 -6 -6 -6 -6 -6 -6 -6 -6 -6 -6 -7 -7 -7 -8 -8 -8
-12 -9 -8 -7 -5 -5 -5 -5 -5 -5 -6 -6 -6 -5 -4 -6 -5 -6 -5 -3 -3 -4 -4 -4 -5 -5 -6 -6 -6 -6 -6 -6 -6 -6 -6 -6 -6 -6 -6 -6 -6 -6 -6 -6 -6 -6 -7 -7 -7 -8 -8 -8 -8 -9
-9 -8 -7 -7 -6 -6 -6 -7 -7 -7 -6 -6 -6 -5 -5 -6 -6 -7 -4 -3 -4 -4 -4 -5 -5 -5 -5 -6 -6 -6 -6 -5 -6 -6 -6 -6 -6 -6 -7 -7 -7 -7 -7 -7 -7 -7 -7 -7 -8 -8 -8 -9 -9 -9
-10 -8 -6 -7 -5 -7 -7 -6 -7 -6 -7 -7 -6 -6 -7 -6 -8 -5 -4 -4 -3 -4 -6 -5 -5 -5 -5 -5 -4 -4 -5 -5 -5 -5 -5 -6 -6 -6 -6 -6 -7 -7 -7 -7 -7 -8 -8 -8 -8 -9 -9 -9 -9 -9
-8 -8 -8 -6 -7 -7 -8 -7 -8 -8 -7 -6 -5 -6 -8 -8 -6 -4 -5 -6 -6 -5 -5 -4 -4 -4 -4 -4 -4 -5 -5 -5 -5 -6 -5 -5 -6 -6 -6 -6 -6 -7 -7 -7 -7 -8 -8 -8 -9 -9 -9 -10 -10 -10
-7 -7 -7 -9 -6 -7 -6 -7 -7 -8 -7 -7 -8 -7 -6 -5 -5 -6 -7 -7 -8 -5 -5 -5 -4 -5 -6 -6 -6 -6 -5 -5 -5 -5 -5 -6 -6 -6 -6 -6 -7 -7 -7 -8 -8 -8 -9 -9 -9 -10 -10 -10 -10 -10
-5 -7 -6 -7 -10 -8 -7 -6 -4 -4 -6 -6 -6 -6 -7 -7 -8 -7 -5 -5 -6 -6 -5 -5 -5 -5 -6 -6 -6 -6 -5 -5 -5 -6 -6 -7 -7 -7 -7 -7 -7 -7 -7 -7 -8 -9 -9 -10 -10 -10 -10 -10 -11 -10
-7 -7 -6 -6 -8 -7 -5 -6 -7 -8 -7 -7 -7 -6 -6 -7 -7 -8 -8 -8 -7 -5 -6 -6 -5 -6 -6 -6 -6 -7 -6 -7 -6 -6 -6 -6 -7 -7 -6 -7 -7 -7 -8 -8 -8 -9 -9 -10 -10 -10 -10 -11 -11 -11
-6 -7 -7 -8 -8 -5 -6 -7 -6 -6 -7 -6 -5 -5 -5 -5 -6 -8 -8 -8 -7 -5 -6 -6 -6 -6 -6 -7 -7 -7 -7 -7 -6 -6 -6 -6 -6 -6 -7 -7 -7 -7 -8 -9 -9 -9 -10 -10 -10 -11 -11 -11 -11 -11
-6 -6 -8 -7 -7 -8 -7 -6 -7 -7 -8 -7 -8 -8 -7 -7 -6 -8 -8 -8 -7 -6 -5 -6 -6 -6 -6 -6 -7 -7 -7 -7 -6 -7 -7 -7 -8 -8 -8 -7 -8 -8 -8 -9 -9 -10 -10 -10 -11 -11 -11 -11 -12 -12

GFSWCAN_850_dewp_138.txt.gz
Dewpoint
-5 -4 -3 -3 -4 -4 -4 -4 -4 -4 -9 -13 -9 -8 -7 -6 -4 -4 -4 -4 -4 -4 -4 -3 -4 -4 -5 -3 -3 -6 2 1 1 2 1 -0 -1 -2 -1 -2 -0 1 0 1 1 2 0 -3 -3 -3 -1 -3 -3 -1
-5 -5 -5 -5 -5 -5 -4 -4 -3 -7 -12 -11 -8 -7 -7 -6 -7 -5 -4 -4 -3 -4 -4 -5 -5 -5 -5 -5 -3 -3 0 1 1 0 -1 -1 -0 -2 -2 -0 -3 -2 -1 0 0 -1 -2 -3 -4 -5 -5 -5 -5 -1
-4 -4 -4 -4 -4 -3 -4 -8 -11 -9 -8 -8 -11 -12 -13 -10 -5 -4 -4 -4 -4 -3 -4 -3 -4 -8 -7 -5 -3 -2 -0 1 1 -0 -1 -1 -2 -3 -1 -2 -3 -1 -1 -2 -1 -2 -2 -4 -3 -2 -3 -2 -2 -1
-5 -5 -5 -4 -6 -9 -8 -7 -8 -8 -11 -13 -12 -6 -5 -4 -3 -3 -3 -3 -3 -3 -3 -5 -5 -4 -5 -3 -2 -1 -0 -0 -1 -0 -0 -1 -1 -3 -2 -2 -2 -2 -2 -1 -1 -1 -1 -2 -1 -1 -0 -0 -1 -0
-7 -6 -7 -9 -8 -8 -8 -8 -9 -11 -13 -9 -6 -4 -4 -3 -3 -3 -3 -3 -4 -3 -2 -2 -2 -2 0 0 1 1 1 0 -1 -1 -1 -1 -2 -3 -4 -3 -1 -2 -2 -1 -2 -3 -1 -1 -0 0 -1 -1 -1 -1
-5 -8 -12 -9 -8 -9 -9 -9 -11 -14 -8 -5 -3 -3 -2 -4 -3 -2 -3 -3 -3 -3 -4 -1 -1 0 -1 -0 1 1 1 1 -2 -3 -3 -3 -3 -4 -3 -2 -3 -5 -5 -5 -2 -3 -1 -3 -3 -1 -1 -1 -1 -0
-5 -7 -14 -12 -11 -12 -11 -12 -14 -13 -4 -3 -3 -2 -2 -2 -2 -2 -2 -2 -2 -2 -2 -1 -1 -1 -3 -3 -2 -2 -3 -2 -3 -2 -3 -3 -3 -3 -4 -1 -4 -4 -4 -4 -2 -2 -0 -1 -2 -2 -2 -0 0 0
-4 -8 -16 -18 -14 -14 -15 -15 -15 -8 -4 -4 -4 -4 -4 -2 -2 -3 -2 -3 -2 -2 -4 -3 -2 -3 -3 -3 -2 -2 -3 -3 -3 -3 -2 -3 -3 -3 -2 -3 -4 -6 -7 -6 -5 -2 -2 -2 -2 -3 -1 -1 -0 -1
-5 -8 -16 -19 -16 -18 -19 -17 -16 -5 -5 -8 -6 -6 -8 -6 -6 -8 -7 -7 -8 -7 -4 -4 -4 -4 -1 -2 -2 -2 -2 -5 -2 -3 -3 -3 -3 -1 -3 -4 -6 -7 -4 -3 -1 -1 -2 -2 -3 -3 -2 -1 -2 -2
-4 -7 -13 -13 -13 -18 -20 -17 -9 -5 -5 -6 -7 -6 -4 -6 -7 -5 -6 -9 -10 -7 -4 -4 -3 -4 -3 -3 -2 -3 -2 -3 -2 -3 -3 -3 -3 -5 -7 -7 -6 -5 -4 -2 -1 -2 -3 -3 -4 -3 -2 -2 -2 -3
-5 -6 -10 -9 -12 -19 -17 -15 -5 -3 -6 -7 -4 -4 -4 -7 -5 -5 -4 -4 -4 -4 -4 -4 -4 -3 -2 -5 -3 -3 -3 -4 -2 -3 -3 -2 -1 -4 -8 -7 -6 -4 -3 -2 -1 -2 -3 -3 -4 -4 -4 -4 -3 -4
-5 -6 -9 -10 -16 -17 -17 -8 -4 -4 -6 -3 -3 -5 -6 -5 -5 -4 -5 -4 -4 -3 -3 -4 -4 -3 -2 -1 -3 -3 -2 -3 -2 -4 -2 -2 -3 -1 -2 -5 -4 -2 -1 -1 -3 -3 -3 -4 -4 -5 -5 -4 -4 -4
-6 -6 -10 -14 -13 -14 -15 -5 -4 -4 -4 -4 -5 -3 -5 -4 -6 -4 -5 -2 -4 -2 -1 -1 -2 -2 -2 -1 -2 -1 -2 -3 -1 -0 0 -0 -1 -2 -2 -3 -3 -3 -1 -2 -4 -4 -4 -4 -5 -5 -5 -5 -4 -5
-10 -11 -10 -14 -13 -8 -9 -4 -4 -3 -3 -4 -3 -3 -4 -3 -3 -3 -1 -1 -1 -1 -1 -0 -1 -1 -1 -1 -2 -1 -1 -1 -1 -2 -0 -0 -1 -2 -3 -3 -3 -2 -4 -4 -4 -4 -4 -5 -5 -5 -5 -5 -6 -6
-9 -9 -12 -15 -11 -9 -5 -5 -3 -3 -3 -3 -3 -2 -2 -2 -1 -1 -2 -2 -2 -0 -1 -0 -0 -1 -1 -1 -1 -2 -3 -3 -4 -6 -3 -2 -2 -2 -3 -3 -4 -4 -5 -4 -4 -4 -5 -5 -6 -6 -6 -6 -6 -6
-4 -4 -3 -5 -6 -8 -7 -4 -4 -3 -3 -3 -2 -3 -3 -4 -2 -3 -3 -2 -0 -0 -0 -0 -3 -4 -3 -2 -2 -4 -3 -5 -2 -1 -1 -2 -3 -4 -4 -4 -4 -4 -5 -5 -4 -5 -5 -5 -6 -6 -6 -6 -6 -6
-3 -3 -4 -4 -5 -4 -3 -3 -3 -3 -2 -3 -2 -3 -4 -4 -2 -2 -2 -2 -2 -1 -4 -3 -5 -4 -4 -4 -3 -3 -5 -3 -1 -2 -3 -4 -4 -5 -4 -4 -4 -6 -6 -5 -6 -6 -6 -6 -6 -7 -7 -8 -7 -7
-4 -4 -4 -5 -3 -3 -3 -3 -2 -2 -2 -5 -5 -2 -4 -4 -2 -2 -2 -2 -1 -1 -2 -3 -4 -4 -6 -3 -2 -4 -3 -3 -3 -3 -2 -5 -4 -4 -3 -3 -5 -5 -5 -6 -6 -6 -7 -7 -7 -8 -8 -8 -7 -8
-5 -5 -5 -8 -6 -2 -2 -2 -2 -2 -4 -6 -5 -5 -5 -4 -4 -4 -4 -3 -1 -0 -1 -3 -5 -3 -3 -4 -4 -3 -3 -3 -4 -3 -2 -4 -3 -2 -3 -4 -5 -5 -5 -6 -6 -7 -7 -7 -7 -8 -8 -9 -8 -8
-12 -8 -9 -9 -7 -3 -2 -4 -4 -4 -3 -4 -5 -5 -4 -4 -5 -4 -3 -3 -1 -2 -3 -3 -4 -2 -2 -2 -2 -4 -4 -3 -5 -4 -3 -3 -3 -3 -4 -5 -5 -5 -5 -6 -7 -7 -7 -7 -7 -7 -8 -8 -9 -8
-8 -7 -6 -9 -7 -5 -5 -5 -5 -5 -5 -6 -6 -6 -4 -3 -5 -4 -3 -3 -2 -3 -4 -1 -2 -2 -3 -3 -4 -4 -5 -4 -5 -5 -5 -4 -4 -4 -4 -5 -5 -5 -5 -5 -6 -6 -6 -7 -7 -7 -7 -7 -8 -8
-7 -10 -13 -7 -6 -4 -4 -6 -5 -4 -5 -4 -4 -4 -4 -4 -3 -5 -4 -2 -3 -3 -2 -3 -3 -3 -4 -4 -4 -4 -4 -5 -5 -5 -4 -4 -4 -4 -4 -4 -4 -5 -5 -6 -6 -6 -6 -7 -6 -7 -7 -7 -8 -8
-13 -12 -8 -6 -6 -6 -7 -5 -5 -5 -5 -6 -5 -5 -6 -5 -6 -5 -5 -4 -4 -3 -3 -3 -3 -4 -5 -5 -6 -5 -5 -5 -5 -5 -5 -4 -5 -5 -4 -5 -5 -5 -5 -6 -6 -6 -6 -7 -7 -7 -7 -7 -7 -8
-11 -9 -7 -7 -6 -8 -5 -5 -5 -5 -5 -5 -4 -6 -6 -5 -5 -5 -5 -5 -4 -4 -3 -3 -4 -4 -4 -5 -5 -5 -6 -5 -5 -6 -5 -4 -4 -5 -5 -5 -6 -6 -6 -6 -6 -6 -6 -7 -7 -7 -7 -7 -7 -8
-12 -10 -10 -11 -4 -7 -7 -7 -7 -5 -7 -7 -6 -7 -6 -6 -8 -7 -6 -6 -4 -3 -4 -4 -5 -5 -6 -6 -6 -6 -6 -6 -6 -6 -6 -6 -5 -5 -5 -5 -6 -6 -6 -6 -6 -6 -7 -7 -7 -7 -7 -7 -8 -8
-11 -9 -9 -10 -9 -8 -7 -9 -10 -9 -8 -8 -8 -6 -5 -7 -7 -8 -5 -4 -5 -4 -4 -4 -5 -5 -6 -6 -6 -6 -7 -6 -6 -6 -6 -6 -6 -6 -6 -7 -6 -6 -6 -6 -7 -7 -7 -7 -7 -8 -8 -8 -8 -8
-11 -13 -6 -8 -6 -6 -8 -7 -6 -8 -9 -9 -9 -9 -10 -9 -10 -8 -5 -4 -4 -4 -5 -6 -6 -5 -5 -5 -5 -6 -5 -6 -6 -6 -6 -6 -6 -6 -6 -6 -7 -7 -7 -7 -7 -7 -7 -7 -8 -8 -8 -9 -8 -9
-8 -8 -9 -7 -7 -7 -10 -10 -11 -10 -9 -7 -6 -7 -9 -9 -9 -5 -5 -7 -8 -7 -6 -6 -5 -5 -5 -5 -4 -4 -4 -5 -5 -6 -5 -5 -5 -5 -6 -6 -6 -7 -7 -7 -7 -7 -8 -8 -8 -8 -9 -9 -9 -10
-5 -6 -6 -10 -7 -7 -8 -9 -9 -7 -7 -6 -9 -9 -9 -5 -5 -6 -7 -7 -7 -7 -7 -5 -5 -6 -6 -6 -5 -4 -4 -5 -5 -5 -6 -5 -5 -6 -6 -6 -7 -7 -7 -7 -7 -8 -8 -8 -9 -9 -9 -9 -10 -10
-6 -6 -7 -10 -11 -10 -8 -6 -5 -5 -6 -6 -6 -7 -7 -8 -8 -8 -8 -8 -7 -6 -6 -7 -7 -6 -6 -5 -5 -6 -5 -5 -5 -6 -6 -7 -7 -7 -6 -6 -7 -7 -7 -7 -8 -8 -9 -9 -10 -10 -10 -10 -10 -10
-6 -8 -7 -7 -9 -7 -8 -7 -6 -6 -7 -8 -9 -7 -7 -7 -8 -9 -11 -12 -11 -8 -5 -6 -6 -6 -6 -6 -6 -6 -7 -6 -6 -5 -5 -6 -6 -6 -6 -6 -7 -7 -7 -8 -8 -9 -9 -10 -10 -10 -10 -10 -11 -11
-7 -7 -8 -9 -10 -6 -6 -7 -7 -7 -7 -7 -7 -7 -6 -6 -6 -8 -8 -8 -8 -8 -6 -6 -6 -6 -6 -6 -6 -6 -7 -7 -6 -6 -7 -7 -7 -7 -6 -6 -7 -7 -7 -8 -8 -9 -10 -10 -10 -10 -10 -11 -11 -11
-6 -6 -6 -7 -8 -8 -7 -7 -7 -7 -7 -7 -8 -8 -8 -6 -7 -8 -8 -8 -8 -7 -5 -6 -6 -7 -6 -6 -6 -7 -7 -7 -7 -7 -7 -7 -7 -7 -7 -7 -7 -8 -8 -8 -9 -9 -10 -10 -10 -11 -11 -11 -11 -12

GFSWCAN_850_dewp_141.txt.gz
Dewpoint
-3 -4 -4 -4 -3 -3 -3 -3 -4 -4 -4 -4 -4 -12 -9 -7 -8 -7 -5 -4 -4 -4 -5 -5 -4 -6 -6 -6 -5 -6 -6 -7 -2 1 1 1 2 1 -1 -1 1 1 1 1 2 2 1 -4 -2 -1 -2 -4 -4 -3
-5 -5 -4 -3 -3 -3 -3 -3 -3 -3 -3 -4 -4 -8 -9 -9 -9 -7 -6 -7 -6 -5 -6 -6 -5 -8 -7 -5 -5 -5 -5 -5 -3 1 1 1 1 -1 -1 0 -2 -1 -1 -0 -1 -1 -4 -3 -3 -4 -4 -3 -3 -4
-5 -4 -4 -4 -4 -4 -4 -4 -4 -4 -3 -3 -10 -8 -7 -7 -6 -5 -4 -5 -5 -5 -4 -4 -5 -9 -7 -5 -5 -4 -5 -5 -4 -4 -0 1 -0 -2 -0 -1 -2 -3 -2 -2 -1 -4 -2 -3 -4 -4 -4 -3 -3 -2
-5 -5 -4 -3 -3 -5 -4 -4 -6 -8 -7 -7 -7 -9 -11 -12 -9 -8 -6 -5 -4 -4 -4 -6 -9 -8 -9 -6 -6 -5 -3 -5 -5 -2 -0 1 0 -3 -2 -2 -2 -2 -2 -2 -2 -3 -3 -6 -5 -2 -1 -1 -2 -2
-6 -5 -5 -5 -5 -6 -10 -9 -7 -7 -8 -10 -13 -13 -6 -4 -4 -4 -4 -4 -3 -4 -3 -4 -4 -5 -5 -4 -3 -4 -3 -3 -2 -2 0 1 -1 -1 -2 -2 -2 -2 -2 -3 -3 -6 -5 -4 -3 -1 -0 0 -0 -0
-7 -7 -6 -6 -8 -10 -9 -8 -8 -9 -12 -14 -7 -4 -3 -3 -3 -3 -2 -4 -3 -3 -3 -3 -5 -3 -1 -1 -2 -2 -2 -2 -2 -0 -1 -2 -3 -2 -1 -2 -4 -3 -4 -7 -6 -6 -3 -2 -3 -5 -2 -2 -1 -0
-6 -6 -12 -13 -11 -9 -7 -9 -11 -12 -12 -7 -4 -3 -3 -3 -3 -3 -3 -3 -5 -3 -3 -2 -2 -1 -1 -1 -1 -1 -1 -1 -0 -2 -3 -3 -2 -3 -3 -2 -4 -4 -5 -5 -5 -2 -1 -2 -3 -4 -2 -2 -1 -0
-5 -5 -10 -16 -12 -10 -12 -12 -14 -13 -9 -4 -3 -3 -2 -2 -3 -3 -2 -2 -3 -3 -3 -2 -1 -1 -1 -2 -1 -1 -1 -2 -2 -2 -2 -4 -4 -3 -3 -3 -5 -9 -10 -9 -7 -4 -3 -3 -2 -2 -2 -1 0 0
-4 -4 -10 -18 -16 -13 -14 -17 -16 -10 -4 -3 -5 -5 -4 -3 -3 -6 -3 -3 -2 -2 -5 -5 -4 -3 -1 -2 -2 -3 -4 -4 -2 -3 -3 -4 -4 -3 -4 -5 -6 -9 -8 -10 -7 -3 -3 -1 -2 -2 -2 -1 -0 -1
-4 -5 -12 -17 -18 -18 -18 -18 -17 -7 -4 -5 -6 -5 -4 -6 -7 -5 -4 -4 -4 -5 -3 -5 -3 -3 -3 -3 -3 -3 -3 -3 -3 -3 -3 -3 -3 -5 -9 -9 -11 -11 -9 -6 -2 -1 -2 -1 -2 -2 -2 -2 -1 -2
-4 -6 -10 -15 -12 -14 -18 -16 -9 -4 -5 -6 -5 -6 -7 -9 -5 -5 -5 -6 -4 -6 -5 -5 -4 -3 -3 -4 -4 -4 -3 -4 -2 -4 -3 -2 -2 -4 -9 -9 -9 -9 -7 -2 -2 -4 -2 -2 -3 -3 -3 -2 -2 -2
-5 -5 -8 -11 -11 -17 -14 -12 -5 -6 -6 -4 -4 -4 -6 -6 -7 -8 -7 -5 -4 -4 -4 -5 -4 -3 -2 -1 -5 -3 -3 -4 -2 -4 -3 -3 -4 -2 -2 -3 -4 -7 -5 -1 -3 -3 -1 -3 -4 -4 -4 -4 -3 -3
-5 -5 -6 -11 -17 -17 -14 -5 -4 -3 -4 -5 -5 -4 -5 -5 -12 -7 -7 -4 -5 -4 -2 -2 -3 -3 -2 -2 -3 -2 -4 -4 -3 -4 -2 -3 -2 -2 -3 -3 -2 -2 -2 -2 -2 -2 -3 -4 -4 -5 -5 -4 -4 -4
-5 -6 -11 -15 -16 -14 -11 -5 -4 -3 -4 -5 -3 -5 -5 -7 -4 -5 -4 -4 -2 -1 -1 -1 -2 -2 -3 -3 -4 -2 -3 -1 -1 -2 -1 -1 -2 -3 -3 -3 -2 -1 -1 -0 -2 -4 -4 -4 -5 -5 -5 -5 -5 -6
-14 -14 -16 -19 -17 -11 -8 -6 -4 -3 -4 -3 -3 -4 -3 -3 -3 -2 -2 -2 -3 -2 -2 -1 -1 -1 -2 -3 -2 -2 -2 -2 -3 -5 -4 -2 -2 -2 -1 -1 -2 -3 -3 -4 -4 -4 -5 -5 -5 -5 -5 -6 -6 -6
-5 -5 -6 -11 -12 -9 -5 -4 -4 -3 -3 -3 -3 -2 -4 -5 -4 -3 -3 -3 -1 -1 -1 -1 -1 -1 -2 -2 -2 -4 -4 -5 -7 -7 -2 -1 -1 -1 -3 -4 -4 -4 -5 -4 -4 -5 -5 -6 -6 -6 -6 -6 -6 -6
-3 -3 -3 -3 -4 -4 -4 -4 -3 -4 -3 -2 -3 -3 -4 -4 -5 -3 -2 -3 -2 -1 -3 -3 -5 -5 -4 -3 -4 -4 -6 -7 -4 -2 -2 -2 -3 -3 -4 -5 -5 -4 -5 -5 -5 -5 -5 -6 -6 -6 -6 -7 -7 -6
-3 -3 -3 -3 -3 -3 -3 -3 -3 -3 -3 -2 -5 -4 -3 -4 -4 -4 -2 -2 -1 -1 -1 -2 -5 -4 -7 -4 -4 -6 -4 -3 -3 -4 -4 -4 -5 -5 -4 -5 -4 -5 -6 -6 -6 -6 -7 -7 -7 -7 -7 -8 -8 -7
-6 -6 -5 -5 -5 -3 -3 -3 -3 -2 -2 -5 -6 -6 -5 -6 -5 -5 -4 -3 -3 -1 -1 -2 -4 -4 -5 -5 -6 -3 -3 -3 -3 -4 -4 -3 -5 -4 -4 -3 -4 -6 -6 -6 -7 -7 -7 -7 -7 -7 -8 -9 -8 -8
-14 -11 -4 -6 -7 -4 -3 -2 -2 -2 -3 -4 -5 -5 -5 -5 -6 -5 -5 -4 -3 -1 -3 -3 -5 -4 -2 -2 -3 -3 -4 -3 -4 -4 -4 -3 -3 -3 -3 -4 -5 -6 -6 -6 -7 -7 -7 -7 -7 -8 -8 -8 -8 -8
-9 -10 -9 -8 -6 -6 -4 -4 -5 -4 -5 -5 -6 -5 -6 -4 -3 -6 -5 -3 -2 -2 -4 -4 -3 -4 -3 -3 -4 -4 -5 -5 -4 -6 -4 -3 -3 -4 -4 -5 -5 -6 -6 -6 -6 -7 -7 -7 -7 -7 -8 -8 -8 -9
-7 -5 -8 -8 -7 -4 -3 -4 -5 -4 -5 -5 -4 -5 -4 -5 -4 -4 -5 -3 -2 -3 -4 -4 -4 -4 -3 -4 -4 -4 -5 -5 -4 -5 -6 -5 -4 -4 -4 -5 -5 -5 -5 -6 -6 -6 -7 -7 -7 -7 -7 -7 -8 -8
-9 -12 -10 -5 -4 -5 -6 -5 -4 -5 -5 -6 -4 -4 -6 -6 -5 -5 -5 -4 -4 -4 -4 -3 -3 -3 -4 -4 -4 -4 -4 -5 -5 -6 -5 -5 -5 -4 -4 -5 -4 -5 -5 -6 -6 -6 -6 -7 -7 -7 -7 -7 -8 -8
-10 -10 -9 -6 -5 -9 -5 -5 -5 -4 -5 -4 -5 -6 -6 -6 -5 -6 -6 -5 -5 -4 -4 -3 -3 -4 -4 -5 -5 -5 -5 -6 -6 -6 -5 -4 -4 -4 -5 -4 -4 -5 -5 -5 -5 -6 -6 -6 -6 -7 -7 -7 -7 -7
-11 -10 -7 -14 -5 -5 -6 -8 -7 -5 -7 -8 -6 -7 -7 -5 -7 -7 -6 -7 -4 -4 -3 -3 -4 -4 -5 -6 -6 -6 -6 -6 -6 -6 -5 -5 -4 -4 -5 -5 -4 -5 -5 -6 -6 -6 -6 -6 -6 -6 -7 -7 -7 -7
-11 -10 -9 -11 -11 -6 -8 -9 -10 -10 -9 -8 -8 -7 -5 -8 -7 -7 -7 -4 -6 -5 -5 -4 -5 -5 -5 -5 -6 -6 -7 -7 -6 -6 -6 -6 -7 -5 -5 -5 -6 -6 -7 -6 -6 -6 -6 -7 -7 -7 -7 -7 -7 -8
-10 -12 -8 -8 -6 -6 -8 -7 -7 -9 -10 -9 -10 -10 -12 -10 -11 -9 -6 -5 -5 -5 -5 -4 -5 -5 -5 -5 -5 -6 -6 -6 -7 -7 -6 -6 -6 -6 -6 -5 -6 -7 -7 -7 -7 -7 -7 -7 -7 -8 -8 -8 -8 -8
-7 -8 -10 -7 -6 -6 -9 -11 -10 -8 -8 -7 -8 -8 -10 -10 -10 -7 -5 -9 -8 -8 -8 -7 -7 -7 -6 -5 -4 -4 -4 -5 -5 -6 -6 -5 -6 -6 -6 -6 -6 -6 -6 -6 -7 -7 -7 -7 -7 -8 -8 -9 -9 -9
-5 -6 -6 -11 -7 -7 -9 -9 -9 -8 -8 -6 -10 -10 -9 -7 -6 -6 -6 -7 -7 -9 -9 -9 -8 -6 -6 -6 -5 -5 -4 -4 -4 -5 -5 -5 -5 -6 -6 -6 -6 -6 -7 -7 -7 -7 -8 -8 -8 -8 -9 -9 -9 -9
-6 -6 -7 -11 -11 -9 -8 -7 -6 -6 -6 -6 -6 -6 -6 -7 -7 -8 -8 -8 -9 -9 -10 -9 -6 -7 -7 -7 -7 -7 -7 -5 -4 -6 -6 -7 -7 -7 -6 -6 -6 -6 -7 -7 -7 -8 -8 -8 -8 -9 -9 -10 -10 -10
-6 -7 -7 -7 -10 -7 -7 -7 -6 -6 -6 -7 -7 -7 -8 -9 -11 -13 -13 -12 -10 -10 -9 -7 -6 -6 -6 -6 -7 -7 -7 -6 -7 -5 -5 -5 -5 -6 -6 -6 -6 -6 -7 -7 -8 -8 -8 -9 -9 -9 -10 -10 -10 -10
-7 -7 -9 -9 -9 -7 -6 -6 -7 -7 -7 -7 -8 -8 -7 -7 -7 -9 -9 -10 -9 -8 -9 -7 -7 -7 -7 -7 -7 -7 -7 -7 -6 -6 -6 -6 -6 -7 -7 -6 -6 -6 -7 -8 -7 -8 -9 -9 -10 -10 -10 -10 -10 -10
-6 -6 -7 -7 -8 -9 -8 -7 -7 -8 -7 -7 -7 -7 -7 -7 -8 -9 -9 -10 -9 -8 -7 -6 -7 -6 -7 -7 -7 -7 -7 -7 -7 -7 -7 -7 -7 -7 -7 -7 -6 -6 -7 -8 -8 -8 -9 -10 -10 -10 -10 -10 -11 -11

GFSWCAN_850_dewp_144.txt.gz
Dewpoint
-3 -3 -3 -5 -7 -6 -3 -2 -4 -5 -7 -9 -8 -6 -7 -13 -11 -6 -4 -4 -4 -5 -5 -6 -7 -7 -7 -7 -6 -7 -7 -8 -7 -2 -1 -2 -3 -2 -0 0 2 1 2 2 2 3 1 -5 -3 -1 -2 -4 -4 -4
-3 -3 -3 -3 -3 -3 -3 -2 -3 -4 -5 -4 -4 -4 -4 -10 -10 -6 -4 -5 -5 -4 -5 -6 -6 -7 -6 -6 -6 -6 -7 -6 -4 -3 -4 -3 -0 -1 1 2 -0 2 -1 -1 -1 -1 -4 -5 -3 -4 -4 -3 -4 -3
-4 -3 -4 -3 -3 -3 -3 -3 -3 -3 -3 -3 -3 -4 -4 -9 -8 -8 -5 -4 -4 -4 -5 -5 -5 -11 -10 -10 -9 -5 -6 -6 -6 -6 -4 -3 -2 -0 0 -0 -1 -2 -2 -1 -1 -2 -3 -4 -4 -4 -5 -5 -3 -2
-6 -5 -5 -4 -4 -3 -3 -3 -3 -3 -3 -3 -4 -4 -5 -7 -7 -7 -5 -4 -5 -4 -4 -7 -8 -8 -11 -9 -8 -7 -7 -7 -6 -6 -4 -3 -2 -3 0 -2 -2 -1 -1 -2 -2 -3 -4 -4 -4 -6 -6 -2 -2 -1
-6 -5 -5 -4 -3 -3 -4 -4 -4 -4 -6 -7 -6 -6 -7 -9 -11 -11 -10 -9 -7 -4 -5 -5 -6 -5 -6 -6 -7 -7 -5 -5 -4 -4 -3 -4 -5 -3 -0 -1 -1 -2 -2 -1 -1 -5 -7 -8 -6 -3 -2 -2 -1 -1
-7 -6 -5 -5 -5 -5 -6 -7 -8 -8 -8 -8 -9 -13 -9 -7 -6 -4 -3 -3 -4 -3 -4 -4 -6 -6 -6 -6 -4 -4 -4 -4 -3 -3 -4 -3 -4 -0 1 1 -3 -4 -4 -6 -6 -8 -8 -6 -2 -4 -5 -4 -3 -2
-7 -7 -7 -6 -5 -6 -8 -8 -8 -8 -9 -12 -13 -11 -5 -3 -3 -4 -3 -2 -3 -4 -4 -3 -4 -6 -4 -3 -3 -3 -2 -3 -3 -3 -2 -2 -1 -0 -1 -1 -5 -5 -4 -6 -7 -6 -3 -2 -2 -3 -3 -3 -2 -1
-7 -6 -7 -11 -11 -10 -9 -9 -10 -12 -14 -13 -7 -4 -3 -3 -3 -3 -4 -3 -2 -3 -3 -2 -3 -2 -1 -2 -2 -2 -2 -2 -2 -1 -2 -2 -2 -2 -2 -3 -5 -7 -6 -6 -8 -5 -4 -4 -3 -3 -2 -2 -1 -0
-4 -5 -8 -13 -15 -12 -12 -13 -14 -15 -12 -5 -3 -3 -3 -3 -3 -4 -3 -3 -3 -3 -3 -3 -3 -3 -2 -2 -2 -2 -2 -2 -2 -1 -2 -3 -3 -3 -4 -4 -6 -8 -10 -10 -7 -7 -5 -3 -2 -2 -2 -1 -0 -0
-4 -4 -6 -15 -18 -15 -13 -15 -17 -11 -5 -4 -4 -3 -4 -4 -4 -4 -2 -2 -3 -2 -2 -4 -4 -3 -3 -4 -3 -3 -3 -2 -2 -4 -3 -3 -3 -5 -8 -8 -12 -12 -12 -8 -5 -2 -2 -2 -2 -1 -1 -2 -1 -1
-5 -4 -8 -16 -15 -15 -15 -17 -14 -6 -4 -5 -4 -5 -5 -6 -6 -3 -4 -5 -5 -6 -5 -5 -4 -4 -3 -5 -4 -4 -3 -3 -3 -4 -3 -3 -2 -4 -5 -4 -6 -7 -8 -8 -4 -3 -4 -3 -1 -2 -3 -2 -2 -1
-5 -6 -9 -14 -12 -12 -17 -15 -6 -4 -6 -3 -3 -4 -5 -5 -6 -8 -8 -6 -4 -5 -4 -5 -5 -4 -2 -2 -5 -4 -3 -4 -4 -5 -3 -3 -5 -3 -2 -3 -3 -5 -7 -6 -3 -3 -4 -2 -3 -3 -3 -3 -3 -3
-4 -6 -7 -10 -10 -15 -14 -7 -4 -4 -3 -4 -4 -4 -5 -7 -12 -12 -12 -5 -6 -5 -3 -2 -2 -3 -3 -3 -4 -3 -4 -4 -4 -2 -3 -4 -3 -2 -3 -2 -3 -4 -4 -1 -2 -2 -2 -3 -4 -4 -4 -4 -3 -3
-4 -5 -5 -9 -14 -15 -12 -6 -5 -4 -3 -4 -4 -7 -10 -10 -5 -7 -5 -5 -3 -2 -2 -2 -2 -3 -4 -3 -4 -4 -5 -3 -2 -2 -2 -4 -2 -3 -2 -2 -2 -2 -1 -1 -2 -3 -4 -4 -4 -5 -5 -4 -4 -5
-5 -5 -6 -9 -14 -13 -7 -6 -4 -4 -3 -4 -4 -8 -5 -5 -3 -3 -3 -3 -3 -3 -2 -2 -2 -3 -3 -6 -3 -3 -3 -3 -3 -4 -7 -3 -3 -2 -1 -1 -2 -2 -2 -3 -4 -4 -5 -5 -5 -6 -5 -5 -6 -6
-7 -6 -8 -13 -14 -11 -6 -5 -4 -4 -4 -3 -3 -3 -3 -4 -6 -4 -4 -3 -2 -2 -2 -1 -1 -1 -2 -2 -2 -2 -4 -5 -7 -8 -3 -1 -3 -1 -2 -4 -4 -5 -5 -4 -4 -5 -5 -5 -6 -6 -6 -6 -6 -6
-3 -3 -3 -5 -10 -8 -5 -4 -4 -4 -3 -3 -4 -2 -2 -4 -5 -5 -3 -3 -2 -2 -1 -3 -4 -3 -4 -3 -3 -4 -6 -7 -5 -3 -2 -1 -1 -2 -3 -4 -5 -5 -5 -5 -5 -5 -6 -6 -6 -6 -6 -6 -7 -6
-4 -3 -3 -3 -4 -4 -4 -4 -3 -4 -3 -3 -4 -4 -4 -5 -5 -4 -4 -2 -2 -2 -1 -2 -4 -4 -7 -4 -5 -7 -4 -3 -3 -3 -3 -3 -4 -4 -4 -4 -5 -4 -5 -5 -6 -6 -6 -7 -7 -7 -7 -8 -8 -7
-8 -4 -4 -4 -4 -3 -3 -3 -3 -3 -3 -3 -4 -5 -5 -6 -6 -6 -5 -4 -3 -3 -2 -2 -4 -4 -5 -6 -8 -4 -4 -4 -4 -4 -4 -4 -4 -5 -4 -4 -4 -4 -6 -6 -6 -7 -7 -7 -7 -8 -8 -8 -8 -7
-16 -11 -5 -3 -4 -4 -3 -3 -3 -2 -3 -4 -5 -5 -5 -5 -6 -6 -6 -5 -4 -3 -2 -2 -4 -6 -5 -3 -4 -4 -5 -4 -4 -4 -5 -4 -3 -3 -3 -3 -4 -5 -6 -7 -7 -7 -7 -7 -8 -8 -8 -9 -8 -8
-11 -12 -12 -4 -4 -5 -4 -4 -2 -4 -4 -4 -5 -5 -6 -5 -5 -5 -5 -5 -3 -2 -3 -3 -4 -5 -5 -4 -3 -4 -5 -5 -6 -5 -6 -5 -4 -3 -4 -4 -5 -6 -6 -7 -7 -7 -7 -7 -7 -8 -8 -8 -8 -9
-13 -7 -7 -6 -5 -4 -4 -5 -5 -4 -4 -5 -5 -5 -4 -6 -3 -4 -4 -5 -5 -4 -5 -4 -4 -4 -4 -4 -4 -4 -5 -5 -4 -5 -5 -5 -4 -4 -4 -5 -5 -6 -6 -6 -6 -6 -7 -7 -8 -8 -8 -8 -8 -8
-9 -6 -9 -8 -6 -4 -5 -4 -4 -5 -5 -6 -4 -5 -7 -6 -4 -5 -5 -5 -4 -4 -5 -4 -3 -3 -3 -3 -4 -4 -4 -4 -4 -5 -5 -5 -4 -4 -4 -5 -5 -5 -6 -6 -6 -6 -7 -7 -7 -8 -7 -8 -8 -8
-8 -9 -8 -5 -4 -9 -6 -5 -4 -4 -5 -5 -5 -6 -6 -7 -5 -6 -6 -6 -6 -5 -4 -3 -3 -3 -3 -4 -5 -5 -5 -4 -5 -6 -6 -5 -4 -4 -5 -4 -5 -5 -5 -5 -5 -6 -6 -6 -7 -7 -7 -7 -7 -7
-9 -9 -7 -11 -6 -6 -5 -7 -8 -4 -7 -7 -5 -7 -8 -5 -6 -7 -7 -7 -6 -5 -4 -3 -3 -4 -4 -5 -6 -6 -6 -6 -6 -6 -6 -6 -5 -4 -4 -5 -4 -4 -4 -5 -5 -5 -6 -6 -6 -6 -6 -7 -7 -7
-11 -12 -10 -12 -12 -7 -7 -8 -10 -9 -9 -9 -9 -8 -6 -7 -7 -8 -7 -5 -5 -6 -6 -5 -5 -4 -4 -4 -4 -5 -6 -6 -7 -6 -6 -5 -5 -5 -4 -5 -6 -5 -5 -5 -5 -5 -5 -6 -6 -6 -6 -6 -6 -7
-9 -11 -9 -9 -8 -6 -8 -7 -7 -10 -10 -9 -10 -11 -11 -7 -10 -9 -7 -6 -6 -8 -8 -7 -6 -5 -6 -6 -5 -4 -5 -6 -7 -7 -7 -6 -6 -6 -6 -5 -5 -6 -6 -7 -7 -6 -6 -6 -6 -6 -6 -6 -7 -7
-7 -8 -10 -7 -6 -6 -9 -10 -10 -9 -9 -8 -9 -9 -10 -11 -10 -9 -6 -10 -9 -8 -9 -11 -9 -7 -7 -7 -6 -4 -5 -5 -5 -6 -6 -6 -6 -7 -6 -6 -6 -6 -6 -6 -6 -7 -7 -7 -7 -6 -7 -7 -8 -8
-7 -6 -6 -11 -8 -7 -8 -8 -9 -8 -8 -7 -10 -10 -10 -8 -7 -7 -6 -7 -7 -8 -9 -9 -10 -10 -7 -7 -6 -5 -4 -4 -4 -5 -5 -6 -6 -6 -6 -6 -6 -6 -7 -7 -7 -6 -7 -8 -8 -7 -7 -8 -8 -9
-7 -6 -7 -11 -11 -9 -8 -7 -7 -6 -6 -6 -6 -6 -6 -6 -7 -7 -8 -9 -9 -9 -8 -7 -7 -7 -7 -7 -6 -6 -7 -7 -7 -5 -5 -7 -7 -7 -6 -6 -6 -6 -7 -7 -7 -8 -8 -8 -8 -8 -8 -8 -9 -10
-6 -6 -7 -7 -10 -7 -7 -7 -7 -7 -6 -6 -6 -7 -7 -8 -10 -12 -13 -12 -11 -10 -9 -8 -7 -7 -7 -6 -6 -6 -7 -6 -7 -7 -6 -5 -5 -7 -6 -7 -6 -6 -6 -7 -8 -8 -8 -8 -8 -9 -9 -9 -10 -10
-7 -7 -9 -10 -9 -8 -7 -6 -6 -6 -7 -7 -8 -8 -8 -7 -8 -11 -11 -10 -10 -10 -9 -8 -8 -8 -7 -7 -7 -8 -7 -8 -7 -6 -6 -6 -7 -7 -6 -6 -6 -6 -6 -6 -7 -8 -8 -8 -9 -9 -10 -10 -10 -10
-8 -8 -8 -8 -8 -9 -9 -7 -8 -9 -8 -7 -7 -7 -8 -8 -8 -9 -11 -12 -12 -12 -10 -8 -6 -6 -7 -6 -7 -8 -8 -8 -7 -7 -7 -7 -7 -7 -6 -6 -7 -6 -6 -6 -7 -8 -8 -9 -9 -10 -10 -10 -10 -10

GFSWCAN_850_dewp_147.txt.gz
Dewpoint
-4 -4 -3 -3 -5 -6 -5 -4 -6 -7 -5 -8 -13 -12 -11 -10 -8 -6 -4 -4 -5 -5 -6 -6 -7 -8 -7 -7 -6 -7 -7 -7 -4 -3 -2 -3 -2 -6 -6 -7 -11 -7 -1 2 3 3 2 -5 -3 -2 -1 -4 -4 -4
-3 -3 -3 -3 -5 -7 -7 -3 -3 -5 -5 -7 -10 -9 -7 -6 -9 -8 -7 -4 -4 -5 -6 -6 -6 -6 -8 -8 -9 -8 -9 -7 -7 -4 -4 -4 -3 -5 -5 -3 -2 -2 -1 -1 -0 1 -1 -5 -4 -4 -4 -4 -4 -4
-4 -3 -3 -2 -3 -4 -4 -4 -3 -3 -3 -6 -6 -5 -5 -4 -4 -8 -6 -5 -5 -4 -5 -6 -6 -13 -9 -8 -8 -7 -7 -8 -8 -9 -5 -4 -4 -7 -5 -4 -5 -4 -1 1 -1 -2 -3 -4 -5 -3 -4 -5 -5 -3
-4 -4 -3 -3 -3 -3 -3 -3 -3 -3 -3 -3 -3 -3 -3 -3 -4 -6 -5 -5 -5 -5 -4 -7 -8 -8 -10 -9 -8 -9 -8 -8 -7 -7 -6 -5 -5 -7 -7 -5 -3 -4 -2 0 -0 -2 -3 -4 -4 -4 -5 -7 -4 -3
-5 -5 -5 -4 -4 -3 -3 -3 -3 -3 -3 -3 -3 -3 -4 -4 -4 -5 -6 -4 -4 -5 -5 -5 -6 -6 -7 -8 -8 -8 -7 -6 -6 -5 -4 -5 -7 -6 -6 -5 -5 -8 -5 2 1 -3 -4 -6 -6 -8 -7 -4 -5 -5
-5 -5 -5 -4 -3 -3 -3 -4 -4 -4 -4 -4 -5 -6 -8 -8 -10 -6 -5 -6 -9 -8 -5 -5 -8 -7 -8 -7 -7 -6 -6 -5 -5 -5 -5 -6 -8 -5 -4 -2 -6 -4 -3 -3 -2 -5 -6 -9 -9 -4 -4 -5 -5 -4
-7 -6 -5 -4 -4 -5 -5 -5 -7 -8 -8 -8 -9 -11 -12 -8 -6 -4 -4 -4 -3 -4 -4 -4 -3 -7 -7 -6 -4 -4 -5 -4 -4 -4 -4 -5 -5 -6 -4 -3 -6 -4 -2 -1 -1 -5 -5 -6 -4 -4 -3 -4 -5 -3
-7 -7 -6 -6 -5 -5 -7 -8 -8 -9 -10 -12 -13 -11 -6 -4 -3 -4 -4 -3 -3 -4 -4 -3 -3 -3 -4 -2 -3 -3 -3 -4 -4 -3 -4 -5 -5 -3 -2 -4 -4 -6 -2 -2 -3 -4 -5 -4 -3 -2 -3 -3 -2 -2
-6 -6 -6 -7 -10 -10 -10 -9 -10 -12 -14 -12 -7 -3 -3 -3 -3 -3 -3 -3 -3 -3 -3 -3 -3 -2 -3 -2 -2 -2 -2 -2 -3 -4 -3 -2 -2 -1 -3 -3 -3 -4 -3 -6 -6 -7 -6 -6 -7 -5 -3 -2 -1 -1
-4 -6 -10 -14 -16 -12 -12 -13 -14 -14 -10 -5 -3 -3 -3 -3 -3 -3 -3 -3 -3 -3 -3 -3 -5 -3 -4 -4 -2 -2 -2 -2 -2 -2 -2 -1 -1 -4 -7 -7 -7 -6 -6 -9 -8 -4 -3 -2 -2 -2 -1 -1 -1 -1
-4 -5 -7 -15 -18 -14 -11 -11 -11 -8 -4 -4 -4 -3 -3 -3 -5 -3 -3 -3 -4 -4 -5 -4 -4 -3 -3 -3 -3 -4 -2 -3 -2 -2 -2 -2 -2 -4 -6 -6 -7 -8 -8 -7 -9 -6 -4 -4 -2 -1 -1 -2 -2 -1
-5 -4 -7 -15 -16 -15 -15 -14 -11 -4 -4 -3 -3 -5 -4 -4 -5 -5 -6 -6 -4 -5 -5 -5 -5 -4 -3 -3 -3 -3 -3 -4 -5 -4 -2 -2 -4 -4 -3 -3 -3 -3 -6 -7 -8 -5 -4 -2 -2 -3 -3 -3 -2 -1
-4 -4 -8 -12 -12 -11 -14 -10 -5 -4 -4 -3 -3 -3 -4 -7 -9 -8 -12 -5 -4 -5 -3 -3 -3 -3 -3 -3 -4 -4 -3 -3 -4 -2 -3 -4 -5 -2 -3 -3 -3 -4 -5 -5 -2 -3 -2 -2 -3 -3 -4 -4 -3 -3
-5 -6 -7 -8 -10 -14 -15 -8 -5 -5 -4 -4 -4 -6 -7 -10 -6 -8 -5 -6 -4 -3 -2 -2 -2 -3 -4 -4 -4 -3 -4 -4 -2 -2 -3 -3 -2 -3 -2 -2 -2 -2 -1 -1 -2 -2 -3 -3 -4 -5 -4 -4 -4 -4
-5 -5 -5 -6 -11 -14 -10 -6 -5 -5 -4 -5 -4 -6 -5 -6 -5 -3 -3 -3 -3 -3 -3 -2 -2 -2 -3 -4 -4 -4 -2 -2 -4 -2 -4 -4 -2 -2 -1 -1 -1 -2 -2 -1 -2 -4 -4 -5 -5 -4 -4 -4 -5 -6
-5 -5 -9 -10 -11 -13 -6 -5 -4 -4 -3 -4 -4 -4 -4 -3 -5 -4 -3 -4 -4 -3 -3 -2 -1 -1 -2 -2 -2 -3 -3 -3 -4 -4 -4 -2 -3 -2 -2 -3 -4 -5 -5 -4 -5 -5 -5 -5 -5 -5 -5 -6 -6 -6
-4 -4 -4 -5 -12 -11 -5 -4 -4 -4 -4 -4 -4 -4 -3 -3 -3 -5 -5 -4 -3 -2 -1 -1 -2 -2 -4 -2 -2 -3 -3 -4 -7 -4 -3 -2 -3 -2 -3 -4 -5 -5 -5 -4 -5 -5 -5 -6 -6 -6 -6 -6 -6 -6
-3 -3 -3 -4 -6 -7 -5 -4 -4 -4 -4 -4 -3 -3 -4 -4 -4 -5 -5 -3 -2 -2 -2 -1 -4 -3 -4 -4 -4 -5 -6 -4 -3 -3 -2 -2 -2 -2 -4 -4 -5 -5 -5 -5 -5 -6 -6 -6 -7 -7 -7 -7 -7 -7
-11 -4 -4 -3 -4 -4 -4 -3 -4 -4 -4 -4 -3 -3 -4 -5 -6 -6 -6 -5 -4 -3 -2 -2 -2 -3 -3 -5 -5 -6 -5 -4 -4 -3 -3 -4 -4 -3 -4 -4 -4 -4 -5 -6 -6 -6 -7 -7 -7 -7 -8 -8 -8 -7
-17 -15 -5 -4 -3 -4 -3 -3 -3 -3 -3 -4 -4 -5 -5 -5 -6 -6 -6 -6 -5 -4 -3 -2 -3 -5 -6 -4 -4 -4 -6 -5 -4 -4 -4 -5 -4 -4 -4 -4 -4 -5 -5 -6 -7 -7 -7 -7 -8 -8 -8 -9 -8 -8
-15 -11 -10 -4 -3 -4 -4 -4 -3 -3 -3 -4 -4 -4 -5 -5 -5 -5 -5 -6 -4 -2 -3 -3 -3 -4 -4 -4 -4 -4 -4 -5 -6 -5 -6 -6 -5 -5 -4 -4 -5 -5 -6 -7 -7 -7 -7 -7 -8 -8 -8 -8 -8 -8
-16 -9 -8 -5 -4 -4 -4 -5 -5 -4 -4 -5 -5 -5 -5 -6 -4 -4 -4 -4 -5 -5 -5 -5 -5 -5 -5 -4 -4 -4 -4 -5 -5 -5 -5 -6 -5 -5 -4 -5 -5 -5 -6 -6 -6 -7 -7 -7 -8 -8 -8 -8 -9 -9
-14 -7 -7 -5 -5 -4 -6 -4 -3 -4 -4 -6 -4 -5 -6 -6 -4 -5 -5 -5 -5 -5 -6 -5 -4 -3 -3 -3 -3 -4 -4 -4 -4 -4 -5 -6 -5 -5 -4 -4 -5 -5 -6 -6 -6 -6 -7 -7 -8 -7 -7 -8 -8 -9
-6 -5 -8 -7 -6 -9 -6 -6 -4 -4 -5 -4 -5 -6 -6 -7 -5 -6 -5 -6 -6 -6 -5 -5 -4 -3 -3 -3 -4 -5 -5 -5 -3 -3 -4 -4 -5 -5 -5 -5 -5 -5 -5 -5 -5 -6 -6 -7 -7 -7 -7 -7 -8 -8
-7 -8 -7 -10 -6 -6 -6 -6 -7 -4 -6 -6 -5 -7 -7 -5 -5 -6 -5 -7 -6 -6 -6 -4 -4 -4 -5 -5 -5 -6 -6 -7 -6 -5 -5 -5 -5 -4 -4 -4 -5 -5 -5 -5 -5 -5 -6 -6 -6 -7 -7 -7 -7 -7
-9 -11 -10 -11 -10 -7 -7 -8 -8 -7 -7 -9 -8 -8 -6 -6 -7 -6 -7 -7 -6 -6 -6 -6 -6 -6 -5 -4 -4 -4 -5 -6 -7 -7 -7 -6 -5 -5 -5 -4 -5 -6 -5 -5 -5 -5 -5 -6 -6 -6 -6 -6 -7 -7
-8 -9 -9 -10 -9 -7 -8 -8 -7 -9 -9 -8 -9 -9 -8 -6 -7 -8 -8 -6 -6 -9 -10 -11 -9 -7 -6 -6 -6 -5 -5 -5 -6 -7 -7 -7 -6 -6 -6 -6 -5 -6 -6 -5 -5 -6 -6 -5 -6 -6 -6 -6 -6 -7
-7 -8 -9 -8 -7 -6 -10 -10 -9 -9 -8 -8 -9 -8 -8 -9 -9 -9 -7 -9 -9 -8 -8 -9 -10 -11 -10 -8 -7 -6 -4 -5 -5 -6 -7 -7 -6 -7 -7 -7 -7 -6 -5 -5 -6 -7 -6 -6 -6 -6 -6 -6 -7 -7
-7 -6 -7 -9 -8 -7 -7 -7 -8 -8 -8 -7 -8 -9 -9 -8 -8 -7 -7 -7 -7 -7 -7 -8 -8 -8 -9 -10 -7 -6 -5 -5 -5 -5 -6 -6 -6 -7 -7 -6 -6 -6 -7 -7 -6 -6 -7 -7 -8 -7 -7 -6 -7 -8
-7 -7 -7 -10 -9 -8 -8 -7 -7 -5 -5 -5 -5 -6 -6 -7 -8 -8 -9 -9 -9 -9 -9 -8 -7 -7 -7 -7 -7 -6 -6 -5 -6 -6 -5 -5 -5 -6 -7 -6 -6 -6 -6 -7 -7 -7 -6 -7 -8 -8 -7 -7 -7 -8
-9 -7 -7 -8 -8 -7 -7 -7 -7 -7 -7 -6 -6 -6 -6 -7 -9 -11 -11 -11 -11 -10 -10 -10 -9 -9 -8 -7 -6 -7 -6 -7 -6 -6 -6 -6 -5 -5 -6 -6 -6 -5 -6 -7 -7 -8 -8 -7 -8 -8 -8 -8 -8 -8
-10 -9 -9 -8 -8 -7 -7 -7 -6 -7 -7 -7 -7 -7 -8 -8 -9 -11 -12 -10 -11 -13 -13 -10 -9 -8 -7 -7 -7 -7 -8 -8 -9 -7 -7 -7 -7 -6 -7 -6 -6 -6 -6 -6 -7 -7 -8 -8 -8 -9 -9 -9 -9 -9
-9 -9 -11 -10 -9 -9 -9 -8 -9 -9 -9 -8 -8 -8 -8 -9 -9 -8 -8 -9 -11 -11 -11 -11 -10 -8 -7 -6 -6 -6 -7 -8 -7 -7 -7 -8 -7 -7 -7 -7 -7 -6 -6 -6 -6 -7 -7 -8 -8 -9 -9 -10 -10 -10